{"data":{"norad_id":59469,"intl_designator":"2024-068Q","name":"STARLINK-31381","alt_names":[],"object_type":"PAYLOAD","status":"ACTIVE","operator":null,"country":"US","launch_date":"2024-04-10","launch_site_code":"AFETR","launch_vehicle":null,"mission":null,"orbit_class":"UNKNOWN","rcs_meters":null,"size_class":null,"mass_kg":null,"dimensions":null,"purposes":["comms"],"wikipedia_slug":null,"has_3d_model":false,"image_url":null,"decayed_at":null,"tle_current":{"epoch":"2026-09-21T08:08:53.396160Z","epoch_age_seconds":92682,"freshness":"FRESH","line1":"1 59469U 24068Q   26264.33950690 -.00000468  00000+0 -74740-5 0  9994","line2":"2 59469  43.0030   6.2310 0001168 269.4101  90.6617 15.27590293138482","mean_motion":15.27590293,"eccentricity":0.0001168,"inclination_deg":43.003,"raan_deg":6.231,"arg_perigee_deg":269.4101,"mean_anomaly_deg":90.6617,"bstar":-7.474e-6,"rev_number":13848,"period_min":94.266113538337,"perigee_km":482.21689233167,"apogee_km":483.81965820398,"semimajor_km":6861.1552752678,"source":"CELESTRAK","updated_at":"2026-09-22T09:00:48.949622Z"}}}